Regional Weather Roundup
Issued by NWS

Home | Current Version | Previous Version | Text Only | Print | Product List | Glossary On
Versions: 1 2 3 4 5 6 7 8 9 10 11 12 13 14 15 16 17 18 19 20 21 22 23 24 25 26 27 28 29 30 31 32 33 34 35 36 37 38 39 40 41 42 43 44 45 46 47 48 49 50
000
ASUS44 KJAN 220010
RWRMS

MISSISSIPPI HOURLY WEATHER ROUNDUP
NATIONAL WEATHER SERVICE JACKSON MS
700 PM CDT SAT SEP 21 2019

NOTE: "FAIR: INDICATES FEW OR NO CLOUDS BELOW 12,000 FEET WITH NO
SIGNIFICANT WEATHER AND/OR OBSTRUCTIONS TO VISIBILITY.

MSZ001>002-007>008-010>013-018>021-025>028-034>036-220100-
NORTHWEST MISSISSIPPI

CITY           SKY/WX    TMP DP  RH WIND       PRES   REMARKS
BATESVILLE     FAIR      82  59  44 SE5       30.11R
CLARKSDALE       N/A     82  63  51 E7        30.10S
CLEVELAND      FAIR      84  60  43 SE6       30.08S
GREENWOOD      FAIR      78  64  61 CALM      30.10S
6HR MIN TEMP:  77; 6HR MAX TEMP:  91;

GREENVILLE     FAIR      81  64  56 S3        30.07R
6HR MIN TEMP:  81; 6HR MAX TEMP:  93;

OLIVE BRANCH   PTCLDY    82  57  42 SE9       30.11S
OXFORD         FAIR      81  57  44 SE5       30.14S
TUNICA           N/A     79  61  53 SE5       30.10F
WINONA         FAIR      77  64  63 CALM      30.12R
$$

MSZ003>006-009-014>017-022>024-029>033-037>039-220100-
NORTHEAST MISSISSIPPI

CITY           SKY/WX    TMP DP  RH WIND       PRES   REMARKS
ABERDEEN       FAIR      75  57  53 CALM      30.15S
COLUMBUS AFB   FAIR      79  63  56 CALM      30.13S
6HR MIN TEMP:  79; 6HR MAX TEMP:  89;

CORINTH        FAIR      77  63  61 S3        30.13F
GOLDN TRIANGLE FAIR      82  61  48 E6        30.13S
STARKVILLE     FAIR      79  63  57 CALM      30.14S
TUPELO         FAIR      83  58  42 SE5       30.14R
6HR MIN TEMP:  83; 6HR MAX TEMP:  91;

$$

MSZ040-058-220100-
CENTRAL MISSISSIPPI

CITY           SKY/WX    TMP DP  RH WIND       PRES   REMARKS
JACKSON INTL   MOCLDY    84  62  47 E5        30.10S
6HR MIN TEMP:  84; 6HR MAX TEMP:  91;

JACKSON HAWKNS CLOUDY    84  62  47 SE7       30.10S
6HR MIN TEMP:  84; 6HR MAX TEMP:  91;

MADISON        FAIR      81  63  54 CALM      30.11S
MERIDIAN KEY   FAIR      86  61  42 E5        30.12R
6HR MIN TEMP:  86; 6HR MAX TEMP:  93;

MERIDIAN NAS   FAIR      83  60  45 E5        30.13R
6HR MIN TEMP:  83; 6HR MAX TEMP:  92;

RAYMOND        FAIR      84  68  58 E5        30.09S
VICKSBURG VKS  CLOUDY    84  68  58 SE3       30.08R
$$

MSZ059>079-220100-
SOUTH MISSISSIPPI

CITY           SKY/WX    TMP DP  RH WIND       PRES   REMARKS
BROOKHAVEN     CLOUDY    79  70  73 NE7       30.13S
HATTIESBURG    FAIR      82  67  60 S8        30.12S
6HR MIN TEMP:  82; 6HR MAX TEMP:  90;

LAUREL         MOCLDY    83  66  56 SE6       30.12R
MCCOMB         CLOUDY    77  70  79 SE7       30.12S
6HR MIN TEMP:  75; 6HR MAX TEMP:  90; 6HR PCP:  0.01;

NATCHEZ        CLOUDY    81  70  69 S9        30.10S
6HR MIN TEMP:  81; 6HR MAX TEMP:  92;

PINE BELT      MOCLDY    80  70  71 CALM      30.13R
6HR MIN TEMP:  80; 6HR MAX TEMP:  90;

$$

MSZ080>082-220100-
COASTAL MISSISSIPPI

CITY           SKY/WX    TMP DP  RH WIND       PRES   REMARKS
BAY ST LOUIS   CLOUDY    81  70  69 SE8       30.11S
BILOXI         MOCLDY    82  69  66 SE13      30.12R
6HR MIN TEMP:  82; 6HR MAX TEMP:  87; 6HR PCP: TRACE;

PASCAGOULA     FAIR      79  67  66 SE5       30.12S
6HR MIN TEMP:  79; 6HR MAX TEMP:  87; 6HR PCP: TRACE;

GULFPORT       FAIR      82  68  62 SE12      30.11S
6HR MIN TEMP:  82; 6HR MAX TEMP:  89;

$$

LAZ007>009-015>016-023>026-220100-
NORTHEAST LOUISIANA

CITY           SKY/WX    TMP DP  RH WIND       PRES   REMARKS
BASTROP        FAIR      79  68  68 CALM      30.07R
TALLULAH/VBURG FAIR      87  64  46 SE10      30.07S
6HR MIN TEMP:  87; 6HR MAX TEMP:  93;

VIDALIA        CLOUDY    82  71  70 SE12      30.08S
$$



USA.gov is the U.S. government's official web portal to all federal, state and local government web resources and services.